******************************************************************************* JPL/HORIZONS Leonard (C/2021 A1) 2025-Dec-12 18:01:54 Rec #:90004659 (+COV) Soln.date: 2025-Jan-02_20:12:26 # obs: 2422 (2020-2022) IAU76/J2000 helio. ecliptic osc. elements (au, days, deg., period=Julian yrs): EPOCH= 2459406.5 ! 2021-Jul-11.0000000 (TDB) RMSW= n.a. EC= 1.00010048049546 QR= .6152301948171482 TP= 2459582.7926796316 OM= 255.8891037387722 W= 225.0877130387106 IN= 132.6858126158049 A= -6122.881779196637 MA= -.000362664078866112ADIST= 9.999999E99 PER= 9.999999E99 N= 2.057E-6 ANGMOM= .0190821 DAN= 4.18679 DDN= .7212499999999999 L= 41.6711816 B= -31.370959 MOID= .231957 TP= 2022-Jan-03.2926796316 Comet physical (GM= km^3/s^2; RAD= km): GM= n.a. RAD= n.a. M1= 12.5 M2= n.a. k1= 4.5 k2= n.a. PHCOF= n.a. Comet non-gravitational force model (AMRAT=m^2/kg;A1-A3=au/d^2;DT=days;R0=au): AMRAT= 0. DT= 0. A1= 5.811942577362E-8 A2= -2.033043861389E-8 A3= 1.102413654327E-8 Standard model: ALN= .1112620426 NK= 4.6142 NM= 2.15 NN= 5.093 R0= 2.808 COMET comments 1: soln ref.= JPL#32, data arc: 2020-04-11 to 2022-01-22 2: k1=4.5; ******************************************************************************* ******************************************************************************* Ephemeris / WWW_USER Fri Dec 12 18:01:54 2025 Pasadena, USA / Horizons ******************************************************************************* Target body name: Leonard (C/2021 A1) {source: JPL#32} Center body name: Earth (399) {source: DE441} Center-site name: GEOCENTRIC ******************************************************************************* Start time : A.D. 2021-Dec-12 00:00:00.0000 UT Stop time : A.D. 2021-Dec-18 00:00:00.0000 UT Step-size : 180 minutes ******************************************************************************* Target pole/equ : undefined Target radii : undefined Center geodetic : 0.0, 0.0, -6378.137 {E-lon(deg),Lat(deg),Alt(km)} Center cylindric: 0.0, 0.0, 0.0 {E-lon(deg),Dxy(km),Dz(km)} Center pole/equ : ITRF93 {East-longitude positive} Center radii : 6378.137, 6378.137, 6356.752 km {Equator_a, b, pole_c} Target primary : Sun Vis. interferer : MOON (R_eq= 1737.400) km {source: DE441} Rel. light bend : Sun {source: DE441} Rel. lght bnd GM: 1.3271E+11 km^3/s^2 Small-body perts: Yes {source: SB441-N16} Atmos refraction: NO (AIRLESS) RA format : HMS Time format : CAL Calendar mode : Mixed Julian/Gregorian EOP file : eop.251212.p260310 EOP coverage : DATA-BASED 1962-JAN-20 TO 2025-DEC-12. PREDICTS-> 2026-MAR-09 Units conversion: 1 au= 149597870.700 km, c= 299792.458 km/s, 1 day= 86400.0 s Table cut-offs 1: Elevation (-90.0deg=NO ),Airmass (>38.000=NO), Daylight (NO ) Table cut-offs 2: Solar elongation ( 0.0,180.0=NO ),Local Hour Angle( 0.0=NO ) Table cut-offs 3: RA/DEC angular rate ( 0.0=NO ) ******************************************************************************* Initial IAU76/J2000 heliocentric ecliptic osculating elements (au, days, deg.): EPOCH= 2459406.5 ! 2021-Jul-11.0000000 (TDB) RMSW= n.a. EC= 1.00010048049546 QR= .6152301948171482 TP= 2459582.7926796316 OM= 255.8891037387722 W= 225.0877130387106 IN= 132.6858126158049 Equivalent ICRF heliocentric cartesian coordinates (au, au/d): X=-1.807972933212298E+00 Y= 1.365331540259884E-02 Z= 2.351056893358045E+00 VX= 9.897579202685157E-03 VY= 5.738055188980243E-03 VZ=-8.288879836330219E-03 Comet physical (GM= km^3/s^2; RAD= km): GM= n.a. RAD= n.a. M1= 12.5 M2= n.a. k1= 4.5 k2= n.a. PHCOF= n.a. Comet non-gravitational force model (AMRAT=m^2/kg;A1-A3=au/d^2;DT=days;R0=au): AMRAT= 0. DT= 0. A1= 5.811942577362E-8 A2= -2.033043861389E-8 A3= 1.102413654327E-8 Standard model: ALN= .1112620426 NK= 4.6142 NM= 2.15 NN= 5.093 R0= 2.808 ******************************************************************************* Date__(UT)__HR:MN R.A._____(ICRF)_____DEC S-O-T /r Cnst ***************************************************************** $$SOE 2021-Dec-12 00:00 16 49 55.81 +01 32 14.1 25.3887 /L Oph 2021-Dec-12 03:00 16 53 57.23 +00 48 37.4 24.4907 /L Oph 2021-Dec-12 06:00 16 57 59.44 +00 04 48.9 23.6072 /L Oph 2021-Dec-12 09:00 17 02 02.28 -00 39 08.2 22.7414 /L Oph 2021-Dec-12 12:00 17 06 05.60 -01 23 10.4 21.8970 /L Oph 2021-Dec-12 15:00 17 10 09.23 -02 07 14.3 21.0777 /L Oph 2021-Dec-12 18:00 17 14 13.01 -02 51 16.5 20.2875 /L Oph 2021-Dec-12 21:00 17 18 16.78 -03 35 13.6 19.5310 /L Oph 2021-Dec-13 00:00 17 22 20.38 -04 19 02.0 18.8125 /T Oph 2021-Dec-13 03:00 17 26 23.65 -05 02 38.5 18.1369 /T Oph 2021-Dec-13 06:00 17 30 26.41 -05 45 59.8 17.5090 /T Oph 2021-Dec-13 09:00 17 34 28.53 -06 29 02.6 16.9338 /T Oph 2021-Dec-13 12:00 17 38 29.83 -07 11 43.9 16.4161 /T Oph 2021-Dec-13 15:00 17 42 30.16 -07 54 00.8 15.9603 /T Oph 2021-Dec-13 18:00 17 46 29.38 -08 35 50.4 15.5706 /T Oph 2021-Dec-13 21:00 17 50 27.34 -09 17 10.1 15.2502 /T Oph 2021-Dec-14 00:00 17 54 23.89 -09 57 57.3 15.0016 /T Oph 2021-Dec-14 03:00 17 58 18.90 -10 38 09.8 14.8260 /T Ser 2021-Dec-14 06:00 18 02 12.24 -11 17 45.6 14.7236 /T Ser 2021-Dec-14 09:00 18 06 03.78 -11 56 42.6 14.6931 /T Ser 2021-Dec-14 12:00 18 09 53.40 -12 34 59.1 14.7321 /T Ser 2021-Dec-14 15:00 18 13 40.99 -13 12 33.6 14.8370 /T Ser 2021-Dec-14 18:00 18 17 26.44 -13 49 24.8 15.0033 /T Ser 2021-Dec-14 21:00 18 21 09.65 -14 25 31.4 15.2258 /T Ser 2021-Dec-15 00:00 18 24 50.52 -15 00 52.7 15.4990 /T Sct 2021-Dec-15 03:00 18 28 28.97 -15 35 27.8 15.8172 /T Sct 2021-Dec-15 06:00 18 32 04.92 -16 09 16.0 16.1746 /T Sgr 2021-Dec-15 09:00 18 35 38.30 -16 42 17.0 16.5658 /T Sgr 2021-Dec-15 12:00 18 39 09.03 -17 14 30.4 16.9854 /T Sgr 2021-Dec-15 15:00 18 42 37.06 -17 45 56.2 17.4288 /T Sgr 2021-Dec-15 18:00 18 46 02.34 -18 16 34.4 17.8916 /T Sgr 2021-Dec-15 21:00 18 49 24.81 -18 46 25.1 18.3696 /T Sgr 2021-Dec-16 00:00 18 52 44.44 -19 15 28.5 18.8595 /T Sgr 2021-Dec-16 03:00 18 56 01.20 -19 43 45.1 19.3581 /T Sgr 2021-Dec-16 06:00 18 59 15.05 -20 11 15.2 19.8625 /T Sgr 2021-Dec-16 09:00 19 02 25.97 -20 37 59.5 20.3705 /T Sgr 2021-Dec-16 12:00 19 05 33.95 -21 03 58.6 20.8798 /T Sgr 2021-Dec-16 15:00 19 08 38.96 -21 29 13.2 21.3887 /T Sgr 2021-Dec-16 18:00 19 11 41.02 -21 53 44.0 21.8957 /T Sgr 2021-Dec-16 21:00 19 14 40.10 -22 17 31.9 22.3993 /T Sgr 2021-Dec-17 00:00 19 17 36.21 -22 40 37.7 22.8984 /T Sgr 2021-Dec-17 03:00 19 20 29.36 -23 03 02.3 23.3920 /T Sgr 2021-Dec-17 06:00 19 23 19.56 -23 24 46.6 23.8794 /T Sgr 2021-Dec-17 09:00 19 26 06.81 -23 45 51.7 24.3598 /T Sgr 2021-Dec-17 12:00 19 28 51.15 -24 06 18.4 24.8325 /T Sgr 2021-Dec-17 15:00 19 31 32.57 -24 26 07.7 25.2973 /T Sgr 2021-Dec-17 18:00 19 34 11.12 -24 45 20.7 25.7536 /T Sgr 2021-Dec-17 21:00 19 36 46.80 -25 03 58.3 26.2012 /T Sgr 2021-Dec-18 00:00 19 39 19.65 -25 22 01.5 26.6398 /T Sgr $$EOE ******************************************************************************* Column meaning: TIME Times PRIOR to 1962 are UT1, a mean-solar time closely related to the prior but now-deprecated GMT. Times AFTER 1962 are in UTC, the current civil or "wall-clock" time-scale. UTC is kept within 0.9 seconds of UT1 using integer leap-seconds for 1972 and later years. Conversion from the internal Barycentric Dynamical Time (TDB) of solar system dynamics to the non-uniform civil UT time-scale requested for output has not been determined for UTC times after the next July or January 1st. Therefore, the last known leap-second is used as a constant over future intervals. Time tags refer to the UT time-scale conversion from TDB on Earth regardless of observer location within the solar system, although clock rates may differ due to the local gravity field and no analog to "UT" may be defined for that location. Any 'b' symbol in the 1st-column denotes a B.C. date. First-column blank (" ") denotes an A.D. date. CALENDAR SYSTEM Mixed calendar mode was active such that calendar dates after AD 1582-Oct-15 (if any) are in the modern Gregorian system. Dates prior to 1582-Oct-5 (if any) are in the Julian calendar system, which is automatically extended for dates prior to its adoption on 45-Jan-1 BC. The Julian calendar is useful for matching historical dates. The Gregorian calendar more accurately corresponds to the Earth's orbital motion and seasons. A "Gregorian-only" calendar mode is available if such physical events are the primary interest. NOTE: "n.a." in output means quantity "not available" at the print-time. 'R.A._____(ICRF)_____DEC' = Astrometric right ascension and declination of the target center with respect to the observing site (coordinate origin) in the reference frame of the planetary ephemeris (ICRF). Compensated for down-leg light-time delay aberration. Units: RA in hours-minutes-seconds of time, HH MM SS.ff{ffff} DEC in degrees-minutes-seconds of arc, sDD MN SC.f{ffff} 'S-O-T /r' = Sun-Observer-Target apparent SOLAR ELONGATION ANGLE seen from the observers' location at print-time. The '/r' column provides a code indicating the targets' apparent position relative to the Sun in the observers' sky, as described below: Case A: For an observing location on the surface of a rotating body, that body rotational sense is considered: /T indicates target TRAILS Sun (evening sky: rises and sets AFTER Sun) /L indicates target LEADS Sun (morning sky: rises and sets BEFORE Sun) Case B: For an observing point that does not have a rotational model (such as a spacecraft), the "leading" and "trailing" condition is defined by the observers' heliocentric ORBITAL motion: * If continuing in the observers' current direction of heliocentric motion would encounter the targets' apparent longitude first, followed by the Sun's, the target LEADS the Sun as seen by the observer. * If the Sun's apparent longitude would be encountered first, followed by the targets', the target TRAILS the Sun. Two other codes can be output: /* indicates observer is Sun-centered (undefined) /? Target is aligned with Sun center (no lead or trail) The S-O-T solar elongation angle is numerically the minimum separation angle of the Sun and target in the sky in any direction. It does NOT indicate the amount of separation in the leading or trailing directions, which would be defined along the equator of a spherical coordinate system. Units: DEGREES 'Cnst' = Constellation ID; the 3-letter abbreviation for the name of the constellation containing the target centers' astrometric position, as defined by IAU (1930) boundary delineation. See documentation for list of abbreviations. Computations by ... Solar System Dynamics Group, Horizons On-Line Ephemeris System 4800 Oak Grove Drive, Jet Propulsion Laboratory Pasadena, CA 91109 USA General site: https://ssd.jpl.nasa.gov/ Mailing list: https://ssd.jpl.nasa.gov/email_list.html System news : https://ssd.jpl.nasa.gov/horizons/news.html User Guide : https://ssd.jpl.nasa.gov/horizons/manual.html Connect : browser https://ssd.jpl.nasa.gov/horizons/app.html#/x API https://ssd-api.jpl.nasa.gov/doc/horizons.html command-line telnet ssd.jpl.nasa.gov 6775 e-mail/batch https://ssd.jpl.nasa.gov/ftp/ssd/horizons_batch.txt scripts https://ssd.jpl.nasa.gov/ftp/ssd/SCRIPTS Author : Jon.D.Giorgini@jpl.nasa.gov ******************************************************************************* !$$SOF COMMAND = '2021 A1' QUANTITIES = '1,23,29' START_TIME = '2021-12-12' STEP_SIZE = '3 hours' STOP_TIME = '2021-12-18'